Claremore, OK

9:57 PM CDT on August 22, 2017 (GMT -0500)
Claremore Regional

Weather History for KGCM - November, 2013

Change the Weather History Date:

Saturday, November 16, 2013

  Actual Average (KTUL) Record (KTUL)
Temperature  
Mean Temperature 62 °F -  
Max Temperature 71 °F 58 °F 84 °F (2016)
Min Temperature 53 °F 38 °F 14 °F (1932)
Degree Days  
Heating Degree Days 3    
Growing Degree Days 12 (Base 50)    
Moisture  
Dew Point 58 °F    
Average Humidity 82    
Maximum Humidity 94    
Minimum Humidity 64    
Precipitation  
Precipitation 0.01 in - - ()
Sea Level Pressure  
Sea Level Pressure 29.70 in    
Wind  
Wind Speed 16 mph (South)    
Max Wind Speed 28 mph    
Max Gust Speed 37 mph    
Visibility 10 miles    
Events Rain    
Averages and records for this station are not official NWS values.
T = Trace of Precipitation, MM = Missing Value Source: NWS Daily Summary

Daily Weather History Graph

Daily Weather History Graph

Search for Another Location

Airport or City:

Trip Planner

Search our weather history database for the weather conditions in past years. The results will help you decide how hot, cold, wet, or windy it might be!

Date:

Astronomy

Nov. 16, 2013 Rise Set
Actual Time 7:00 AM CST 5:12 PM CST
Civil Twilight 6:32 AM CST 5:40 PM CST
Nautical Twilight 6:01 AM CST 6:11 PM CST
Astronomical Twilight 5:31 AM CST 6:41 PM CST
Moon 4:47 PM CST (11/16) 5:59 AM CST (11/16)
Length of Visible Light 11h 07m
Length of Day
10h 12m
Waxing Gibbous, 99% of the Moon is Illuminated
Nov 16
Waxing Gibbous
Nov 17
Full
Nov 25
Last Quarter
Dec 2
New
Dec 9
First Quarter

Hourly Weather History & Observations

Time (CST) Temp. Dew Point Humidity Pressure Visibility Wind Dir Wind Speed Gust Speed Precip Events Conditions
12:15 AM 53.6 °F 50.0 °F 88% 29.85 in 7.0 mi South 9.2 mph - N/A   Overcast
12:35 AM 53.6 °F 50.0 °F 88% 29.84 in 7.0 mi South 11.5 mph 16.1 mph N/A   Overcast
12:55 AM 53.6 °F 50.0 °F 88% 29.83 in 7.0 mi South 9.2 mph 16.1 mph N/A   Overcast
1:15 AM 53.6 °F 50.0 °F 88% 29.83 in 7.0 mi South 11.5 mph 17.3 mph N/A   Overcast
1:35 AM 53.6 °F 51.8 °F 94% 29.83 in 7.0 mi South 13.8 mph 20.7 mph N/A   Overcast
1:55 AM 53.6 °F 51.8 °F 94% 29.82 in 7.0 mi South 13.8 mph 17.3 mph N/A   Overcast
2:15 AM 53.6 °F 51.8 °F 94% 29.81 in 7.0 mi SSE 10.4 mph 18.4 mph N/A   Mostly Cloudy
2:35 AM 53.6 °F 51.8 °F 94% 29.80 in 7.0 mi South 12.7 mph 23.0 mph N/A   Mostly Cloudy
2:55 AM 53.6 °F 51.8 °F 94% 29.79 in 7.0 mi South 15.0 mph 21.9 mph N/A   Scattered Clouds
3:15 AM 55.4 °F 51.8 °F 88% 29.79 in 7.0 mi South 16.1 mph 23.0 mph N/A   Scattered Clouds
3:35 AM 55.4 °F 53.6 °F 94% 29.78 in 7.0 mi South 16.1 mph 23.0 mph N/A   Mostly Cloudy
3:55 AM 55.4 °F 53.6 °F 94% 29.79 in 10.0 mi South 15.0 mph 23.0 mph N/A   Mostly Cloudy
4:15 AM 57.2 °F 53.6 °F 88% 29.78 in 10.0 mi SSE 13.8 mph 23.0 mph N/A   Overcast
4:35 AM 57.2 °F 53.6 °F 88% 29.78 in 10.0 mi SSE 13.8 mph 26.5 mph N/A   Overcast
4:55 AM 59.0 °F 53.6 °F 82% 29.77 in 10.0 mi SSE 15.0 mph 21.9 mph N/A   Overcast
5:15 AM 59.0 °F 55.4 °F 88% 29.76 in 10.0 mi South 15.0 mph 21.9 mph N/A   Mostly Cloudy
5:35 AM 59.0 °F 55.4 °F 88% 29.76 in 10.0 mi South 17.3 mph 23.0 mph N/A   Mostly Cloudy
5:55 AM 59.0 °F 55.4 °F 88% 29.76 in 10.0 mi South 16.1 mph 23.0 mph N/A   Overcast
6:15 AM 59.0 °F 55.4 °F 88% 29.75 in 10.0 mi South 15.0 mph 23.0 mph N/A   Overcast
6:35 AM 60.8 °F 55.4 °F 82% 29.74 in 10.0 mi South 17.3 mph 23.0 mph N/A   Mostly Cloudy
6:55 AM 60.8 °F 55.4 °F 82% 29.75 in 10.0 mi South 15.0 mph 27.6 mph N/A   Overcast
7:15 AM 60.8 °F 55.4 °F 82% 29.75 in 10.0 mi South 15.0 mph 26.5 mph N/A   Overcast
7:35 AM 60.8 °F 55.4 °F 82% 29.75 in 10.0 mi South 15.0 mph 24.2 mph N/A   Overcast
7:55 AM 60.8 °F 57.2 °F 88% 29.76 in 10.0 mi South 13.8 mph 23.0 mph N/A   Overcast
8:15 AM 62.6 °F 59.0 °F 88% 29.77 in 10.0 mi South 19.6 mph 26.5 mph N/A Rain Light Rain
8:35 AM 62.6 °F 59.0 °F 88% 29.78 in 10.0 mi South 20.7 mph 27.6 mph N/A   Drizzle
8:55 AM 60.8 °F 59.0 °F 94% 29.78 in 7.0 mi South 18.4 mph 27.6 mph N/A Rain Light Rain
9:15 AM 60.8 °F 59.0 °F 94% 29.77 in 10.0 mi South 20.7 mph 28.8 mph N/A   Light Drizzle
9:35 AM 62.6 °F 59.0 °F 88% 29.77 in 10.0 mi South 17.3 mph 27.6 mph 0.01 in Rain Light Rain
9:55 AM 62.6 °F 59.0 °F 88% 29.77 in 10.0 mi South 19.6 mph 28.8 mph 0.01 in   Mostly Cloudy
10:15 AM 62.6 °F 59.0 °F 88% 29.75 in 10.0 mi South 16.1 mph 27.6 mph N/A Rain Light Rain
10:35 AM 62.6 °F 59.0 °F 88% 29.74 in 10.0 mi South 19.6 mph 26.5 mph N/A   Scattered Clouds
10:55 AM 62.6 °F 59.0 °F 88% 29.72 in 10.0 mi South 20.7 mph 28.8 mph N/A   Clear
11:15 AM 62.6 °F 59.0 °F 88% 29.71 in 10.0 mi South 18.4 mph 26.5 mph N/A   Clear
11:35 AM 62.6 °F 59.0 °F 88% 29.70 in 10.0 mi South 17.3 mph 28.8 mph N/A   Clear
11:55 AM 64.4 °F 59.0 °F 83% 29.69 in 10.0 mi South 17.3 mph 26.5 mph N/A   Scattered Clouds
12:15 PM 64.4 °F 59.0 °F 83% 29.68 in 10.0 mi South 20.7 mph 28.8 mph N/A   Scattered Clouds
12:35 PM 66.2 °F 59.0 °F 78% 29.68 in 10.0 mi South 18.4 mph 34.5 mph N/A   Mostly Cloudy
12:55 PM 68.0 °F 59.0 °F 73% 29.66 in 10.0 mi South 26.5 mph 33.4 mph N/A   Scattered Clouds
1:15 PM 68.0 °F 59.0 °F 73% 29.65 in 10.0 mi South 24.2 mph 36.8 mph N/A   Scattered Clouds
1:35 PM 69.8 °F 59.0 °F 68% 29.64 in 10.0 mi SSW 27.6 mph 31.1 mph N/A   Scattered Clouds
1:55 PM 71.6 °F 59.0 °F 64% 29.62 in 10.0 mi South 23.0 mph 32.2 mph N/A   Scattered Clouds
2:15 PM 69.8 °F 59.0 °F 68% 29.61 in 10.0 mi South 21.9 mph 32.2 mph N/A   Clear
2:35 PM 71.6 °F 59.0 °F 64% 29.61 in 10.0 mi South 19.6 mph 32.2 mph N/A   Clear
2:55 PM 69.8 °F 59.0 °F 68% 29.61 in 10.0 mi South 20.7 mph 29.9 mph N/A   Scattered Clouds
3:15 PM 69.8 °F 59.0 °F 68% 29.61 in 10.0 mi South 25.3 mph 35.7 mph N/A   Scattered Clouds
3:35 PM 69.8 °F 59.0 °F 68% 29.60 in 10.0 mi South 23.0 mph 29.9 mph N/A   Scattered Clouds
3:55 PM 69.8 °F 59.0 °F 68% 29.60 in 10.0 mi South 20.7 mph 28.8 mph N/A   Scattered Clouds
4:15 PM 69.8 °F 59.0 °F 68% 29.60 in 10.0 mi South 20.7 mph 31.1 mph N/A   Scattered Clouds
4:35 PM 69.8 °F 59.0 °F 68% 29.61 in 10.0 mi South 23.0 mph 32.2 mph N/A   Scattered Clouds
4:55 PM 69.8 °F 59.0 °F 68% 29.60 in 10.0 mi South 16.1 mph 31.1 mph N/A   Clear
5:15 PM 68.0 °F 59.0 °F 73% 29.61 in 10.0 mi South 19.6 mph 32.2 mph N/A   Clear
5:35 PM 68.0 °F 59.0 °F 73% 29.62 in 10.0 mi South 16.1 mph 25.3 mph N/A   Scattered Clouds
5:55 PM 68.0 °F 59.0 °F 73% 29.62 in 10.0 mi South 21.9 mph 28.8 mph N/A   Mostly Cloudy
6:15 PM 68.0 °F 59.0 °F 73% 29.63 in 10.0 mi South 16.1 mph 31.1 mph N/A   Scattered Clouds
6:35 PM 68.0 °F 59.0 °F 73% 29.62 in 10.0 mi South 19.6 mph 31.1 mph N/A   Mostly Cloudy
6:55 PM 68.0 °F 59.0 °F 73% 29.63 in 10.0 mi South 21.9 mph 32.2 mph N/A   Mostly Cloudy
7:15 PM 68.0 °F 59.0 °F 73% 29.63 in 10.0 mi South 19.6 mph 28.8 mph N/A   Mostly Cloudy
7:35 PM 66.2 °F 59.0 °F 78% 29.62 in 10.0 mi South 13.8 mph 21.9 mph N/A   Mostly Cloudy
7:55 PM 64.4 °F 59.0 °F 83% 29.63 in 10.0 mi South 16.1 mph 24.2 mph N/A   Mostly Cloudy
8:15 PM 64.4 °F 59.0 °F 83% 29.62 in 10.0 mi South 17.3 mph 25.3 mph N/A   Scattered Clouds
8:35 PM 64.4 °F 60.8 °F 88% 29.62 in 10.0 mi South 19.6 mph 25.3 mph N/A   Scattered Clouds
8:55 PM 64.4 °F 60.8 °F 88% 29.62 in 10.0 mi South 17.3 mph 23.0 mph N/A   Clear
9:15 PM 66.2 °F 60.8 °F 83% 29.61 in 10.0 mi South 20.7 mph 27.6 mph N/A   Scattered Clouds
9:35 PM 68.0 °F 60.8 °F 78% 29.61 in 10.0 mi South 19.6 mph 27.6 mph N/A   Scattered Clouds
9:55 PM 68.0 °F 62.6 °F 83% 29.61 in 10.0 mi South 20.7 mph 34.5 mph N/A   Scattered Clouds
10:15 PM 68.0 °F 62.6 °F 83% 29.60 in 10.0 mi South 21.9 mph 31.1 mph N/A   Scattered Clouds
10:35 PM 68.0 °F 62.6 °F 83% 29.61 in 10.0 mi South 23.0 mph 32.2 mph N/A   Scattered Clouds
10:55 PM 68.0 °F 62.6 °F 83% 29.61 in 10.0 mi South 21.9 mph 28.8 mph N/A   Mostly Cloudy
11:15 PM 68.0 °F 62.6 °F 83% 29.60 in 10.0 mi South 21.9 mph 29.9 mph N/A   Scattered Clouds
11:35 PM 68.0 °F 62.6 °F 83% 29.60 in 10.0 mi South 20.7 mph 27.6 mph N/A   Clear
11:55 PM 68.0 °F 62.6 °F 83% 29.60 in 10.0 mi South 19.6 mph 27.6 mph N/A   Clear